Satellite: NOAA-11
Catalog number: 19531
Epoch time:      06173.16947974
Element set:     166
Inclination:      098.8266 deg
RA of node:       261.5320 deg
Eccentricity:    0.0011474
Arg of perigee:   339.9475 deg
Mean anomaly:     020.1273 deg
Mean motion:   14.14809035 rev/day
Decay rate:      -1.07e-06 rev/day^2
Epoch rev:           91524
Checksum:              303

Satellite: NOAA-12
Catalog number: 21263
Epoch time:      06173.29969843
Element set:     660
Inclination:      098.7287 deg
RA of node:       166.5620 deg
Eccentricity:    0.0013851
Arg of perigee:   074.6277 deg
Mean anomaly:     285.6439 deg
Mean motion:   14.25487284 rev/day
Decay rate:        3.9e-07 rev/day^2
Epoch rev:           78497
Checksum:              354

Satellite: MET-3/5
Catalog number: 21655
Epoch time:      06172.92407909
Element set:    0207
Inclination:      082.5539 deg
RA of node:       257.4406 deg
Eccentricity:    0.0014138
Arg of perigee:   033.3701 deg
Mean anomaly:     326.8306 deg
Mean motion:   13.17006422 rev/day
Decay rate:        5.1e-07 rev/day^2
Epoch rev:           71398
Checksum:              285

Satellite: MET-2/21
Catalog number: 22782
Epoch time:      06172.51583487
Element set:    0540
Inclination:      082.5484 deg
RA of node:       328.0177 deg
Eccentricity:    0.0022772
Arg of perigee:   163.9568 deg
Mean anomaly:     196.2322 deg
Mean motion:   13.83606809 rev/day
Decay rate:        5.4e-07 rev/day^2
Epoch rev:           64664
Checksum:              324

Satellite: OKEAN-4
Catalog number: 23317
Epoch time:      06172.74091694
Element set:    0978
Inclination:      082.5400 deg
RA of node:       272.7526 deg
Eccentricity:    0.0022491
Arg of perigee:   004.5254 deg
Mean anomaly:     355.6164 deg
Mean motion:   14.82370954 rev/day
Decay rate:       3.56e-06 rev/day^2
Epoch rev:           63065
Checksum:              305

Satellite: NOAA-14
Catalog number: 23455
Epoch time:      06173.32447538
Element set:     163
Inclination:      099.0377 deg
RA of node:       231.6511 deg
Eccentricity:    0.0009894
Arg of perigee:   041.3873 deg
Mean anomaly:     318.8057 deg
Mean motion:   14.13664626 rev/day
Decay rate:      -1.98e-06 rev/day^2
Epoch rev:           59179
Checksum:              328

Satellite: SICH-1
Catalog number: 23657
Epoch time:      06172.73818940
Element set:    0780
Inclination:      082.5284 deg
RA of node:       053.6568 deg
Eccentricity:    0.0024160
Arg of perigee:   352.5357 deg
Mean anomaly:     007.5473 deg
Mean motion:   14.81365748 rev/day
Decay rate:        9.2e-07 rev/day^2
Epoch rev:           58266
Checksum:              322

Satellite: NOAA-15
Catalog number: 25338
Epoch time:      06173.15096886
Element set:     555
Inclination:      098.5145 deg
RA of node:       175.3047 deg
Eccentricity:    0.0010667
Arg of perigee:   005.9687 deg
Mean anomaly:     354.1611 deg
Mean motion:   14.24586907 rev/day
Decay rate:        5.6e-07 rev/day^2
Epoch rev:           42142
Checksum:              318

Satellite: RESURS
Catalog number: 25394
Epoch time:      06172.78100105
Element set:    0410
Inclination:      098.4927 deg
RA of node:       235.5168 deg
Eccentricity:    0.0001639
Arg of perigee:   126.8027 deg
Mean anomaly:     233.3303 deg
Mean motion:   14.24104372 rev/day
Decay rate:        2.3e-07 rev/day^2
Epoch rev:           41305
Checksum:              253

Satellite: FENGYUN1
Catalog number: 25730
Epoch time:      06172.58670183
Element set:    0758
Inclination:      098.6245 deg
RA of node:       164.9670 deg
Eccentricity:    0.0015046
Arg of perigee:   125.4782 deg
Mean anomaly:     234.7775 deg
Mean motion:   14.11812843 rev/day
Decay rate:       -1.5e-07 rev/day^2
Epoch rev:           36663
Checksum:              313

Satellite: OKEAN-0
Catalog number: 25860
Epoch time:      06173.50816463
Element set:     780
Inclination:      097.7319 deg
RA of node:       187.5941 deg
Eccentricity:    0.0001940
Arg of perigee:   083.4362 deg
Mean anomaly:     276.7069 deg
Mean motion:   14.73371410 rev/day
Decay rate:        6.9e-07 rev/day^2
Epoch rev:           37253
Checksum:              311

Satellite: NOAA-16
Catalog number: 26536
Epoch time:      06173.17538937
Element set:     928
Inclination:      099.0654 deg
RA of node:       139.8516 deg
Eccentricity:    0.0011403
Arg of perigee:   104.5102 deg
Mean anomaly:     255.7342 deg
Mean motion:   14.12350552 rev/day
Decay rate:       3.96e-06 rev/day^2
Epoch rev:           29628
Checksum:              307

Satellite: NOAA-17
Catalog number: 27453
Epoch time:      06173.37156297
Element set:     947
Inclination:      098.6208 deg
RA of node:       245.4832 deg
Eccentricity:    0.0012657
Arg of perigee:   063.3335 deg
Mean anomaly:     296.9151 deg
Mean motion:   14.23788161 rev/day
Decay rate:       2.12e-06 rev/day^2
Epoch rev:           20751
Checksum:              315

Satellite: NOAA-18
Catalog number: 28654
Epoch time:      06173.31291744
Element set:     527
Inclination:      098.7860 deg
RA of node:       116.4791 deg
Eccentricity:    0.0013792
Arg of perigee:   204.1418 deg
Mean anomaly:     155.9110 deg
Mean motion:   14.10970134 rev/day
Decay rate:       2.35e-06 rev/day^2
Epoch rev:            5610
Checksum:              289

/EX
SB KEPS @ AMSAT  $ORB06173.M
Orbital Elements  06173.MISC

HR AMSAT ORBITAL ELEMENTS FOR MANNED AND MISCELLANEOUS SATELLITES
FROM WA5QGD FORT WORTH,TX June 22, 2006
Send SUBSCRIBE KEPS/UNSUBSCRIBE KEPS to majordomo@amsat.org only
BID: ORB06173.M
TO ALL RADIO AMATEURS BT

